When you browse on this site, cookies collect data to enhance your experience and personalize the content and advertising you see.
Visit our Privacy Policy to learn more. By continuing to use the site, you agree to this use of cookies and data.
  • En España
  • Lista de países
  • Para 7 días
  • Temperatura del agua
  • Mapa Satelital
  • El tiempo en el mapa
  • Informadores
  • user-avatar
    Iniciar sesión

    Tiempo cada hora Pabna

    Hoy, 21 Noviembre, Miércoles

    Tiempo Temperatura Precipitaciones Viento Presión Humedad
    00:00 +24°C° 0 mm 1 mps 759 mmHg 62%
    01:00 +23°C° 0 mm 1 mps 759 mmHg 63%
    02:00 +23°C° 0 mm 1 mps 759 mmHg 64%
    03:00 +23°C° 0 mm 1 mps 759 mmHg 65%
    04:00 +23°C° 0 mm 2 mps 759 mmHg 67%
    05:00 +21°C° 0 mm 2 mps 759 mmHg 70%
    06:00 +22°C° 0 mm 1 mps 760 mmHg 64%
    07:00 +23°C° 0 mm 1 mps 760 mmHg 60%
    08:00 +25°C° 0 mm 2 mps 760 mmHg 56%
    09:00 +26°C° 0 mm 2 mps 761 mmHg 52%
    10:00 +28°C° 0 mm 2 mps 760 mmHg 47%
    11:00 +29°C° 0 mm 2 mps 760 mmHg 42%
    12:00 +31°C° 0 mm 1 mps 760 mmHg 34%
    13:00 +31°C° 0 mm 2 mps 759 mmHg 33%
    14:00 +31°C° 0 mm 2 mps 758 mmHg 31%
    15:00 +31°C° 0 mm 2 mps 758 mmHg 30%
    16:00 +30°C° 0 mm 2 mps 758 mmHg 33%
    17:00 +28°C° 0 mm 2 mps 758 mmHg 36%
    18:00 +27°C° 0 mm 2 mps 758 mmHg 40%
    19:00 +26°C° 0 mm 2 mps 758 mmHg 43%
    20:00 +26°C° 0 mm 2 mps 758 mmHg 47%
    21:00 +25°C° 0 mm 2 mps 759 mmHg 51%
    22:00 +24°C° 0 mm 2 mps 759 mmHg 54%
    23:00 +24°C° 0 mm 2 mps 759 mmHg 58%

    Mañana, 22 Noviembre, Jueves

    Tiempo Temperatura Precipitaciones Viento Presión Humedad
    00:00 +23°C° 0 mm 2 mps 759 mmHg 62%
    01:00 +23°C° 0 mm 2 mps 759 mmHg 64%
    02:00 +23°C° 0 mm 1 mps 759 mmHg 67%
    03:00 +22°C° 0 mm 1 mps 759 mmHg 69%
    04:00 +22°C° 0 mm 1 mps 759 mmHg 70%
    05:00 +21°C° 0 mm 2 mps 759 mmHg 70%
    06:00 +20°C° 0 mm 2 mps 759 mmHg 71%
    07:00 +23°C° 0 mm 2 mps 760 mmHg 65%
    08:00 +25°C° 0 mm 2 mps 761 mmHg 60%
    09:00 +26°C° 0 mm 2 mps 761 mmHg 54%
    10:00 +27°C° 0 mm 3 mps 761 mmHg 49%
    11:00 +29°C° 0 mm 3 mps 760 mmHg 43%
    12:00 +30°C° 0 mm 3 mps 760 mmHg 38%
    13:00 +30°C° 0 mm 3 mps 759 mmHg 37%
    14:00 +31°C° 0 mm 3 mps 759 mmHg 35%
    15:00 +32°C° 0 mm 4 mps 758 mmHg 34%
    16:00 +30°C° 0 mm 3 mps 758 mmHg 38%
    17:00 +28°C° 0 mm 3 mps 758 mmHg 42%
    18:00 +27°C° 0 mm 2 mps 758 mmHg 47%
    19:00 +26°C° 0 mm 2 mps 758 mmHg 49%
    20:00 +25°C° 0 mm 2 mps 759 mmHg 52%
    21:00 +25°C° 0 mm 2 mps 760 mmHg 55%
    22:00 +24°C° 0 mm 2 mps 759 mmHg 58%
    23:00 +24°C° 0 mm 2 mps 759 mmHg 60%

    Pasado mañana, 23 Noviembre, Viernes

    Tiempo Temperatura Precipitaciones Viento Presión Humedad
    00:00 +23°C° 0 mm 2 mps 759 mmHg 63%
    01:00 +23°C° 0 mm 2 mps 759 mmHg 65%
    02:00 +23°C° 0 mm 2 mps 759 mmHg 67%
    03:00 +21°C° 0 mm 2 mps 759 mmHg 68%
    04:00 +21°C° 0 mm 2 mps 759 mmHg 70%
    05:00 +20°C° 0 mm 2 mps 759 mmHg 71%
    06:00 +20°C° 0 mm 2 mps 759 mmHg 72%
    07:00 +23°C° 0 mm 2 mps 760 mmHg 67%
    08:00 +24°C° 0 mm 2 mps 761 mmHg 62%
    09:00 +25°C° 0 mm 2 mps 761 mmHg 57%
    10:00 +27°C° 0 mm 2 mps 761 mmHg 52%
    11:00 +28°C° 0 mm 2 mps 760 mmHg 47%
    12:00 +29°C° 0 mm 2 mps 759 mmHg 41%
    13:00 +30°C° 0 mm 2 mps 759 mmHg 39%
    14:00 +30°C° 0 mm 2 mps 758 mmHg 37%
    15:00 +31°C° 0 mm 2 mps 757 mmHg 34%
    16:00 +29°C° 0 mm 2 mps 757 mmHg 38%
    17:00 +28°C° 0 mm 2 mps 757 mmHg 41%
    18:00 +27°C° 0 mm 2 mps 757 mmHg 44%
    19:00 +26°C° 0 mm 2 mps 758 mmHg 46%
    20:00 +26°C° 0 mm 2 mps 758 mmHg 48%
    21:00 +25°C° 0 mm 2 mps 759 mmHg 51%
    22:00 +25°C° 0 mm 2 mps 759 mmHg 53%
    23:00 +24°C° 0 mm 2 mps 759 mmHg 55%

    24 Noviembre, Sábado

    Tiempo Temperatura Precipitaciones Viento Presión Humedad
    00:00 +24°C° 0 mm 2 mps 759 mmHg 57%
    01:00 +23°C° 0 mm 2 mps 758 mmHg 58%
    02:00 +23°C° 0 mm 2 mps 758 mmHg 60%
    03:00 +22°C° 0 mm 1 mps 758 mmHg 62%
    04:00 +22°C° 0 mm 1 mps 758 mmHg 63%
    05:00 +22°C° 0 mm 1 mps 759 mmHg 65%
    06:00 +21°C° 0 mm 1 mps 759 mmHg 66%
    07:00 +23°C° 0 mm 1 mps 760 mmHg 62%
    08:00 +24°C° 0 mm 1 mps 760 mmHg 58%
    09:00 +26°C° 0 mm 2 mps 761 mmHg 53%
    10:00 +27°C° 0 mm 2 mps 761 mmHg 49%
    11:00 +28°C° 0 mm 2 mps 760 mmHg 44%
    12:00 +30°C° 0 mm 2 mps 760 mmHg 40%
    13:00 +30°C° 0 mm 2 mps 759 mmHg 38%
    14:00 +30°C° 0 mm 2 mps 758 mmHg 36%
    15:00 +31°C° 0 mm 2 mps 758 mmHg 35%
    16:00 +29°C° 0 mm 2 mps 758 mmHg 38%
    17:00 +28°C° 0 mm 2 mps 758 mmHg 41%
    18:00 +27°C° 0 mm 2 mps 758 mmHg 45%
    19:00 +26°C° 0 mm 2 mps 758 mmHg 48%
    20:00 +25°C° 0 mm 2 mps 759 mmHg 50%
    21:00 +25°C° 0 mm 2 mps 759 mmHg 53%
    22:00 +24°C° 0 mm 2 mps 759 mmHg 56%
    23:00 +24°C° 0 mm 2 mps 759 mmHg 58%

    25 Noviembre, Domingo

    Tiempo Temperatura Precipitaciones Viento Presión Humedad
    00:00 +23°C° 0 mm 2 mps 759 mmHg 61%
    01:00 +23°C° 0 mm 2 mps 758 mmHg 63%
    02:00 +21°C° 0 mm 2 mps 758 mmHg 64%
    03:00 +21°C° 0 mm 2 mps 758 mmHg 66%
    04:00 +21°C° 0 mm 2 mps 758 mmHg 68%
    05:00 +20°C° 0 mm 2 mps 758 mmHg 69%
    06:00 +20°C° 0 mm 2 mps 759 mmHg 70%
    07:00 +21°C° 0 mm 2 mps 759 mmHg 65%
    08:00 +24°C° 0 mm 2 mps 760 mmHg 61%
    09:00 +25°C° 0 mm 2 mps 761 mmHg 56%
    10:00 +27°C° 0 mm 2 mps 760 mmHg 50%
    11:00 +28°C° 0 mm 2 mps 759 mmHg 44%
    12:00 +30°C° 0 mm 2 mps 759 mmHg 38%
    13:00 +30°C° 0 mm 2 mps 758 mmHg 36%
    14:00 +31°C° 0 mm 2 mps 757 mmHg 33%
    15:00 +31°C° 0 mm 2 mps 756 mmHg 31%
    16:00 +30°C° 0 mm 2 mps 756 mmHg 34%
    17:00 +28°C° 0 mm 2 mps 756 mmHg 38%
    18:00 +27°C° 0 mm 1 mps 757 mmHg 41%
    19:00 +26°C° 0 mm 2 mps 757 mmHg 43%
    20:00 +26°C° 0 mm 2 mps 758 mmHg 46%
    21:00 +25°C° 0 mm 2 mps 758 mmHg 48%
    22:00 +25°C° 0 mm 2 mps 758 mmHg 51%
    23:00 +24°C° 0 mm 2 mps 758 mmHg 53%

    26 Noviembre, Lunes

    Tiempo Temperatura Precipitaciones Viento Presión Humedad
    00:00 +23°C° 0 mm 2 mps 758 mmHg 56%
    01:00 +23°C° 0 mm 2 mps 757 mmHg 58%
    02:00 +23°C° 0 mm 2 mps 757 mmHg 60%
    03:00 +21°C° 0 mm 2 mps 757 mmHg 62%
    04:00 +21°C° 0 mm 2 mps 757 mmHg 63%
    05:00 +20°C° 0 mm 2 mps 757 mmHg 65%
    06:00 +20°C° 0 mm 2 mps 758 mmHg 66%
    07:00 +23°C° 0 mm 2 mps 758 mmHg 61%
    08:00 +24°C° 0 mm 2 mps 759 mmHg 56%
    09:00 +26°C° 0 mm 2 mps 760 mmHg 51%
    10:00 +27°C° 0 mm 1 mps 759 mmHg 46%
    11:00 +29°C° 0 mm 1 mps 759 mmHg 41%
    12:00 +31°C° 0 mm 1 mps 758 mmHg 35%
    13:00 +31°C° 0 mm 1 mps 757 mmHg 34%
    14:00 +32°C° 0 mm 1 mps 757 mmHg 33%
    15:00 +32°C° 0 mm 1 mps 756 mmHg 31%
    16:00 +29°C° 0 mm 0 mps 756 mmHg 34%
    17:00 +27°C° 0 mm 0 mps 756 mmHg 37%
    18:00 +26°C° 0 mm 0 mps 757 mmHg 41%
    19:00 +28°C° 0 mm 1 mps 757 mmHg 42%
    20:00 +27°C° 0 mm 1 mps 758 mmHg 43%
    21:00 +27°C° 0 mm 2 mps 758 mmHg 45%
    22:00 +26°C° 0 mm 2 mps 758 mmHg 47%
    23:00 +25°C° 0 mm 2 mps 758 mmHg 49%
    Mostrar más